• Join FlightAware (Why Join?)
  • Login
  • US Flag 
08:40AM EST


 

Airport Tracker/Info


-or-


 

Live Flight TrackerFlight Track Log ✈ N830QS ✈ 28-Jun-2013 ✈ KSJC - KLAX

Flight Track Log - Related Links

Times and Time Zones

All times are in EDT time to prevent confusion due to time zone crossing. See the N830QS flight status page for this flight to view local times or setup timezone preferences in your user account.

Time Position Orientation Groundspeed Altitude Reporting Facility
EDT Latitude Longitude Course Direction KTS MPH feet Rate Location/Type
11:19AM 37.4000 -121.9667 38° Northeast 197 227 2,800  Level Northern Cal TRACON
11:20AM 37.4333 -121.9333 38° Northeast 234 269 5,000 1,350 Climbing Northern Cal TRACON
11:21AM 37.3833 -121.8667 133° Southeast 273 314 5,500 1,143 Climbing Northern Cal TRACON
11:22AM 37.3550 -121.8333 137° Southeast 268 308 7,000 849 Climbing Oakland Center
11:23AM 37.2903 -121.7603 138° Southeast 280 322 7,000 683 Level Oakland Center
11:24AM 37.2278 -121.6914 139° Southeast 277 319 8,400 1,902 Climbing Oakland Center
11:25AM 37.1742 -121.6314 138° Southeast 281 323 10,900 2,754 Climbing Oakland Center
11:26AM 37.1153 -121.5636 137° Southeast 285 328 14,000 2,585 Climbing Oakland Center
11:27AM 37.0486 -121.4931 140° Southeast 288 331 16,200 1,951 Climbing Oakland Center
11:28AM 36.9833 -121.4183 138° Southeast 308 354 18,000 2,000 Climbing Oakland Center
11:29AM 36.9175 -121.3453 138° Southeast 316 364 20,300 1,951 Climbing Oakland Center
11:30AM 36.8481 -121.2706 139° Southeast 325 374 22,000 1,820 Climbing Oakland Center
11:31AM 36.7614 -121.1767 139° Southeast 340 391 24,000 1,756 Climbing Oakland Center
11:32AM 36.6883 -121.0972 139° Southeast 344 396 25,600 1,268 Climbing Oakland Center
11:33AM 36.6092 -121.0133 140° Southeast 361 415 26,600 683 Climbing Oakland Center
11:34AM 36.5272 -120.9239 139° Southeast 379 436 27,000 195 Climbing Oakland Center
11:35AM 36.4483 -120.8361 138° Southeast 383 441 27,000  Level Oakland Center
11:36AM 36.3700 -120.7522 139° Southeast 375 432 27,000  Level Oakland Center
11:37AM 36.2925 -120.6692 139° Southeast 371 427 27,000  Level Oakland Center
11:38AM 36.2167 -120.5850 138° Southeast 368 423 27,000  Level Oakland Center
11:39AM 36.1422 -120.5042 139° Southeast 362 417 27,000  Level Oakland Center
11:40AM 36.0522 -120.4067 139° Southeast 358 412 27,000  Level Oakland Center
11:41AM 35.9781 -120.3286 140° Southeast 353 406 27,000  Level Oakland Center
11:42AM 35.9042 -120.2506 139° Southeast 350 403 27,000  Level Oakland Center
11:43AM 35.8319 -120.1717 138° Southeast 348 400 27,000  Level Oakland Center
11:44AM 35.7581 -120.0956 140° Southeast 346 398 27,000  Level Oakland Center
11:45AM 35.6847 -120.0181 139° Southeast 347 399 27,000  Level Oakland Center
11:46AM 35.6078 -119.9436 142° Southeast 351 404 27,000  Level Oakland Center
11:47AM 35.5183 -119.8669 145° Southeast 384 442 27,000  Level Oakland Center
11:49AM 35.4067 -119.7717 145° Southeast 407 468 27,000  Level Los Angeles Center
11:50AM 35.3125 -119.6894 145° Southeast 413 475 27,000  Level Los Angeles Center
11:51AM 35.2164 -119.6075 145° Southeast 417 480 27,000 -339 Level Los Angeles Center
11:52AM 35.1214 -119.5253 145° Southeast 419 482 26,300 -1,210 Descending Los Angeles Center
11:53AM 35.0108 -119.4311 145° Southeast 404 465 24,500 -1,113 Descending Los Angeles Center
11:54AM 34.9253 -119.3589 145° Southeast 378 435 24,000 -242 Descending Los Angeles Center
11:55AM 34.8400 -119.2850 145° Southeast 377 434 24,000  Level Los Angeles Center
11:56AM 34.7528 -119.2119 145° Southeast 380 437 24,000 -528 Level Los Angeles Center
11:57AM 34.6656 -119.1375 145° Southeast 384 442 22,900 -1,597 Descending Los Angeles Center
11:58AM 34.5647 -119.0567 147° Southeast 369 425 20,700 -1,984 Descending Los Angeles Center
11:59AM 34.4822 -118.9872 145° Southeast 361 415 18,800 -1,839 Descending Los Angeles Center
12:00PM 34.4006 -118.9194 146° Southeast 357 411 16,900 -1,790 Descending Los Angeles Center
12:01PM 34.3153 -118.8667 153° Southeast 345 397 15,100 -1,742 Descending Los Angeles Center
12:02PM 34.2239 -118.8325 163° South 345 397 13,300 -2,032 Descending Los Angeles Center
12:03PM 34.1172 -118.7933 163° South 334 384 10,900 -1,412 Descending Los Angeles Center
12:04PM 34.0439 -118.7453 151° Southeast 306 352 10,100 -394 Descending Los Angeles Center
12:05PM 34.0264 -118.6267 100° East 299 344 10,000 -816 Descending Los Angeles Center
12:06PM 34.0164 -118.5217 97° East 293 337 8,400 -1,452 Descending Los Angeles Center
12:07PM 34.0150 -118.4411 91° East 272 313 7,000 -1,452 Descending Los Angeles Center
12:08PM 34.0225 -118.3589 84° East 250 288 5,400 -1,887 Descending Los Angeles Center
12:09PM 34.0247 -118.2694 88° East 230 265 3,100 -1,548 Descending Los Angeles Center
12:10PM 33.9772 -118.2714 182° South 194 223 2,200 -581 Descending Los Angeles Center
12:12PM 33.9603 -118.3192 247° West 176 203 1,900 -624 Descending Los Angeles Center
12:13PM 33.9572 -118.3642 265° West 153 176 900 -816 Descending Los Angeles Center
12:14PM 33.9531 -118.4028 263° West 132 152 200 -677 Descending Los Angeles Center
12:16PM 33.9425 -118.4081 228° Southwest  Level Estimated